Location: Eaton Estates
(41.3089°N, 82.0057°W)
Time: 13:09:31
(UTC+00:00)

Cosmos 1437 Rocket - Pass Details

Date: 17 June 2021
Orbit: 500 x 567 km, 81.2° (Epoch: 26 July)

Event Time Altitude Azimuth Distance (km) Brightness Sun altitude
Rises 06:30:14 0° 359° (N) 2,681 7.6 -23.8°
Reaches altitude 10° 06:32:33 10° 8° (N) 1,774 6.5 -23.6°
Maximum altitude 06:36:08 34° 75° (ENE) 862 4.0 -23.5°
Enters shadow 06:36:44 32° 96° (E) 898 3.9 -23.4°
